User: anonymous
Location: Unspecified
(0.0000°N, 0.0000°E)
Time: 16:17:48
(UTC+00:00)
Language:

ISS - Orbit

View from above orbital plane
View from above orbital plane
View from above satellite
View from above satellite

Ground track
Ground track

The orbit data is extracted from the following two-line orbital elements,

1 25544U 98067A   14274.53191318  .00012809  00000-0  22580-3 0  1823
2 25544 051.6463 292.4720 0002243 131.7232 003.7831 15.50778450907823
Epoch (UTC): 01 October 2014 12:45:57
Eccentricity: 0.0002243
inclination: 51.6463°
perigee height: 413 km
apogee height: 416 km
right ascension of ascending node: 292.4720°
argument of perigee: 131.7232°
revolutions per day: 15.50778450
mean anomaly at epoch: 3.7831°
orbit number at epoch: 90782

The dashed part of the orbit path shows where the satellite is in the earth's shadow,  

DLR